Regional Weather Roundup
Issued by NWS Jackson, KY

Home | Current Version | Previous Version | Text Only | Print | Product List | Glossary On
Versions: 1 2 3 4 5 6 7 8 9 10 11 12 13 14 15 16 17 18 19 20 21 22 23 24 25 26 27 28 29 30 31 32 33 34 35 36 37 38 39 40 41 42 43 44 45 46 47 48 49 50
000
ASUS43 KJKL 211619
RWRJKL

EAST KENTUCKY HOURLY WEATHER ROUNDUP
NATIONAL WEATHER SERVICE JACKSON KY
1200 PM EDT THU AUG 21 2014

NOTE: "FAIR" INDICATES FEW OR NO CLOUDS BELOW 12,000 FEET WITH
NO SIGNIFICANT WEATHER AND/OR OBSTRUCTIONS TO VISIBILITY.

* THESE REPORTS ARE NOT UNDER NWS QUALITY CONTROL AND MAY NOT
  REPORT WEATHER SUCH AS PRECIPITATION AND FOG.

KYZ079-080-083-085-087-088-110-112-115-119-120-211700
...EASTERN KENTUCKY...

CITY           SKY/WX    TMP DP  RH WIND       PRES   REMARKS
JACKSON        MOSUNNY   79  70  74 VRB3      30.16R
LONDON         MOSUNNY   83  71  67 SW6       30.17S
SOMERSET*      CLOUDY    79  73  83 SW5       30.17S
MONTICELLO*    CLOUDY    82  74  77 W6        30.18R
WILLIAMSBURG*  MOSUNNY   81  75  83 CALM      30.18R
MIDDLESBORO*   MOSUNNY   78  69  74 CALM      30.20S
HARLAN APT*    MOSUNNY   77  68  73 MISG      30.20F
HAZARD APT*    MOSUNNY   79  70  73 SW6       30.16
BLACK MTN*       N/A     72  68  88 NE1         N/A
PIKEVILLE APT* CLOUDY    73  70  88 SE3       30.16S
BIG SANDY*     CLOUDY    76  69  79 S5        30.15S
MOREHEAD APT*  CLOUDY    79  72  78 VRB7      30.14S
ASHLAND*         N/A    N/A N/A N/A SW7         N/A
$$

KYZ035-036-041-042-044-050-067-078-099-211700
...CENTRAL KENTUCKY...

CITY           SKY/WX    TMP DP  RH WIND       PRES   REMARKS
MT STERLING*   PTSUNNY   79  72  78 SW5       30.13S
FLEMING/MASON* MOSUNNY   77  72  83 S6        30.12S
DANVILLE*      PTSUNNY   81  72  74 SW8       30.15R
RICHMOND*      PTSUNNY   81  72  74 SW8       30.13S
LEXINGTON      CLOUDY    83  73  72 SW12      30.11S
FRANKFORT      PTSUNNY   81  73  76 SW10      30.09S
$$

KYZ091>093-OHZ055-061-077-WVZ005-015-034-035-042-211700
...SOUTHERN OHIO/WEST VIRGINIA...

CITY           SKY/WX    TMP DP  RH WIND       PRES   REMARKS
COVINGTON      CLOUDY    73  70  90 SW8       30.09S
COLUMBUS       TSTM      73  70  88 W9        30.10R FOG
DAYTON         TSTM      72  70  94 SW8       30.12R FOG
WILMINGTON     LGT RAIN  71  69  93 SW5       30.10R FOG
HUNTINGTON     PTSUNNY   77  70  79 S8        30.10S
CHARLESTON     PTSUNNY   78  69  73 S5        30.11F
PINEVILLE*     SUNNY     81  70  70 MISG      30.22F
BECKLEY        MOSUNNY   76  63  64 W6        30.21S
BLUEFIELD      MOSUNNY   77  63  61 W7        30.24S
$$

VAZ002-007-008-TNZ017-027-036-066-071-211700
...SOUTHWEST VIRGINIA/EAST TENNESSEE...

CITY           SKY/WX    TMP DP  RH WIND       PRES   REMARKS
WISE*          CLOUDY    73  70  88 SE5       30.25F
JONESVILLE*      N/A     75  68  78 CALM      30.23S
ABINGDON*      CLOUDY    74  66  75 W7        30.24S
BRISTOL        CLOUDY    75  66  73 W6        30.21S
KNOXVILLE      MOSUNNY   78  69  73 CALM      30.18S
OAK RIDGE      MOSUNNY   78  70  76 VRB3      30.20S
CROSSVILLE     PTSUNNY   82  68  62 W10       30.23S
NASHVILLE      MOSUNNY   89  74  60 W6        30.15R HX  98
$$

...KEY TO REMARKS...
VSB - VISIBILITY IN MILES
WCI - WIND CHILL INDEX
HX  - HEAT INDEX

$$


USA.gov is the U.S. government's official web portal to all federal, state and local government web resources and services.